• în România
  • Lista ţărilor
  • Pe 7 zile
  • Temperatura apei
  • Hartă satelitară
  • Meteo pe hartă
  • Widget-uri
  • user-avatar
    Intrare

    Meteo pe oră la Nesebyr

    Astăzi, 18 Iunie, Luni

    Timp Temperatura Precipitaţii Vânt Presiune Umiditate
    00:00 +21°C° 0 mm 1 m/s 755 mmHg 87%
    01:00 +20°C° 0 mm 2 m/s 755 mmHg 88%
    02:00 +19°C° 0 mm 2 m/s 754 mmHg 89%
    03:00 +19°C° 0,3 mm 2 m/s 755 mmHg 89%
    04:00 +19°C° 0,3 mm 2 m/s 755 mmHg 90%
    05:00 +19°C° 0,3 mm 2 m/s 755 mmHg 90%
    06:00 +21°C° 0 mm 2 m/s 755 mmHg 84%
    07:00 +24°C° 0 mm 3 m/s 755 mmHg 77%
    08:00 +25°C° 0 mm 3 m/s 755 mmHg 71%
    09:00 +27°C° 0,1 mm 4 m/s 755 mmHg 65%
    10:00 +28°C° 0,1 mm 4 m/s 755 mmHg 59%
    11:00 +30°C° 0,1 mm 4 m/s 755 mmHg 53%
    12:00 +30°C° 0,5 mm 5 m/s 755 mmHg 55%
    13:00 +30°C° 0,5 mm 5 m/s 755 mmHg 57%
    14:00 +30°C° 0,5 mm 5 m/s 755 mmHg 58%
    15:00 +29°C° 0,3 mm 5 m/s 755 mmHg 57%
    16:00 +29°C° 0,3 mm 5 m/s 755 mmHg 56%
    17:00 +29°C° 0,3 mm 5 m/s 755 mmHg 55%
    18:00 +27°C° 0 mm 4 m/s 755 mmHg 63%
    19:00 +25°C° 0 mm 4 m/s 755 mmHg 70%
    20:00 +22°C° 0 mm 3 m/s 755 mmHg 78%
    21:00 +21°C° 0 mm 3 m/s 756 mmHg 81%
    22:00 +20°C° 0 mm 3 m/s 756 mmHg 85%
    23:00 +19°C° 0 mm 2 m/s 756 mmHg 89%

    Mâine, 19 Iunie, Marţi

    Timp Temperatura Precipitaţii Vânt Presiune Umiditate
    00:00 +19°C° 0 mm 3 m/s 756 mmHg 89%
    01:00 +19°C° 0 mm 3 m/s 756 mmHg 89%
    02:00 +18°C° 0 mm 3 m/s 757 mmHg 89%
    03:00 +18°C° 0 mm 3 m/s 757 mmHg 87%
    04:00 +18°C° 0 mm 3 m/s 757 mmHg 85%
    05:00 +18°C° 0 mm 3 m/s 757 mmHg 83%
    06:00 +20°C° 0 mm 4 m/s 757 mmHg 74%
    07:00 +22°C° 0 mm 4 m/s 757 mmHg 64%
    08:00 +25°C° 0 mm 5 m/s 758 mmHg 54%
    09:00 +27°C° 0 mm 5 m/s 758 mmHg 49%
    10:00 +28°C° 0 mm 6 m/s 758 mmHg 43%
    11:00 +30°C° 0 mm 6 m/s 758 mmHg 38%
    12:00 +30°C° 0 mm 7 m/s 758 mmHg 38%
    13:00 +30°C° 0 mm 7 m/s 758 mmHg 39%
    14:00 +32°C° 0 mm 7 m/s 758 mmHg 39%
    15:00 +30°C° 0 mm 7 m/s 758 mmHg 42%
    16:00 +29°C° 0 mm 7 m/s 758 mmHg 44%
    17:00 +29°C° 0 mm 7 m/s 758 mmHg 46%
    18:00 +27°C° 0 mm 6 m/s 758 mmHg 53%
    19:00 +25°C° 0 mm 5 m/s 758 mmHg 61%
    20:00 +23°C° 0 mm 4 m/s 758 mmHg 68%
    21:00 +22°C° 0 mm 4 m/s 759 mmHg 73%
    22:00 +21°C° 0 mm 4 m/s 759 mmHg 78%
    23:00 +20°C° 0 mm 4 m/s 759 mmHg 83%

    Poimâine, 20 Iunie, Miercuri

    Timp Temperatura Precipitaţii Vânt Presiune Umiditate
    00:00 +20°C° 0 mm 4 m/s 759 mmHg 82%
    01:00 +20°C° 0 mm 3 m/s 759 mmHg 82%
    02:00 +19°C° 0 mm 3 m/s 759 mmHg 82%
    03:00 +19°C° 0 mm 4 m/s 759 mmHg 80%
    04:00 +19°C° 0 mm 4 m/s 759 mmHg 78%
    05:00 +19°C° 0 mm 4 m/s 759 mmHg 76%
    06:00 +21°C° 0 mm 4 m/s 760 mmHg 68%
    07:00 +23°C° 0 mm 5 m/s 760 mmHg 60%
    08:00 +26°C° 0 mm 6 m/s 760 mmHg 52%
    09:00 +28°C° 0 mm 6 m/s 760 mmHg 46%
    10:00 +29°C° 0 mm 6 m/s 760 mmHg 41%
    11:00 +32°C° 0 mm 6 m/s 760 mmHg 36%
    12:00 +32°C° 0 mm 6 m/s 760 mmHg 35%
    13:00 +33°C° 0 mm 6 m/s 760 mmHg 34%
    14:00 +33°C° 0 mm 6 m/s 760 mmHg 33%
    15:00 +32°C° 0 mm 6 m/s 760 mmHg 35%
    16:00 +32°C° 0 mm 6 m/s 759 mmHg 37%
    17:00 +30°C° 0 mm 6 m/s 759 mmHg 39%
    18:00 +28°C° 0 mm 5 m/s 760 mmHg 48%
    19:00 +26°C° 0 mm 4 m/s 760 mmHg 57%
    20:00 +22°C° 0 mm 3 m/s 760 mmHg 67%
    21:00 +21°C° 0 mm 3 m/s 760 mmHg 72%
    22:00 +21°C° 0 mm 3 m/s 760 mmHg 77%
    23:00 +20°C° 0 mm 2 m/s 760 mmHg 82%

    21 Iunie, Joi

    Timp Temperatura Precipitaţii Vânt Presiune Umiditate
    00:00 +19°C° 0 mm 2 m/s 760 mmHg 82%
    01:00 +19°C° 0 mm 2 m/s 760 mmHg 81%
    02:00 +19°C° 0 mm 2 m/s 760 mmHg 81%
    03:00 +19°C° 0 mm 2 m/s 759 mmHg 80%
    04:00 +18°C° 0 mm 3 m/s 759 mmHg 79%
    05:00 +18°C° 0 mm 3 m/s 759 mmHg 78%
    06:00 +21°C° 0 mm 3 m/s 759 mmHg 69%
    07:00 +24°C° 0 mm 3 m/s 759 mmHg 60%
    08:00 +27°C° 0 mm 3 m/s 759 mmHg 51%
    09:00 +28°C° 0 mm 4 m/s 759 mmHg 46%
    10:00 +30°C° 0 mm 4 m/s 759 mmHg 41%
    11:00 +32°C° 0 mm 4 m/s 758 mmHg 36%
    12:00 +33°C° 0 mm 4 m/s 758 mmHg 35%
    13:00 +33°C° 0 mm 4 m/s 758 mmHg 35%
    14:00 +34°C° 0 mm 5 m/s 757 mmHg 34%
    15:00 +33°C° 0 mm 4 m/s 757 mmHg 36%
    16:00 +33°C° 0 mm 4 m/s 757 mmHg 38%
    17:00 +31°C° 0 mm 3 m/s 757 mmHg 40%
    18:00 +29°C° 0 mm 3 m/s 757 mmHg 47%
    19:00 +27°C° 0 mm 2 m/s 757 mmHg 54%
    20:00 +25°C° 0 mm 1 m/s 757 mmHg 61%
    21:00 +24°C° 0 mm 1 m/s 757 mmHg 63%
    22:00 +23°C° 0 mm 1 m/s 757 mmHg 66%
    23:00 +20°C° 0 mm 0 m/s 757 mmHg 68%

    22 Iunie, Vineri

    Timp Temperatura Precipitaţii Vânt Presiune Umiditate
    00:00 +20°C° 0 mm 0 m/s 757 mmHg 68%
    01:00 +22°C° 0 mm 1 m/s 757 mmHg 68%
    02:00 +21°C° 0 mm 1 m/s 756 mmHg 68%
    03:00 +21°C° 0 mm 1 m/s 756 mmHg 69%
    04:00 +21°C° 0 mm 1 m/s 756 mmHg 69%
    05:00 +21°C° 0 mm 1 m/s 756 mmHg 69%
    06:00 +23°C° 0 mm 1 m/s 756 mmHg 63%
    07:00 +26°C° 0 mm 1 m/s 756 mmHg 56%
    08:00 +28°C° 0 mm 1 m/s 756 mmHg 50%
    09:00 +30°C° 0 mm 1 m/s 756 mmHg 46%
    10:00 +31°C° 0 mm 1 m/s 756 mmHg 42%
    11:00 +33°C° 0 mm 1 m/s 755 mmHg 39%
    12:00 +34°C° 0 mm 2 m/s 755 mmHg 38%
    13:00 +34°C° 0 mm 2 m/s 754 mmHg 38%
    14:00 +34°C° 0 mm 3 m/s 754 mmHg 37%
    15:00 +34°C° 0 mm 3 m/s 754 mmHg 38%
    16:00 +34°C° 0 mm 3 m/s 754 mmHg 40%
    17:00 +33°C° 0 mm 3 m/s 754 mmHg 41%
    18:00 +31°C° 0 mm 3 m/s 754 mmHg 44%
    19:00 +29°C° 0 mm 3 m/s 754 mmHg 47%
    20:00 +28°C° 0 mm 3 m/s 754 mmHg 50%
    21:00 +27°C° 0 mm 3 m/s 754 mmHg 54%
    22:00 +26°C° 0 mm 3 m/s 754 mmHg 59%
    23:00 +25°C° 0 mm 2 m/s 754 mmHg 63%

    23 Iunie, Sâmbătă

    Timp Temperatura Precipitaţii Vânt Presiune Umiditate
    00:00 +24°C° 0 mm 2 m/s 754 mmHg 64%
    01:00 +24°C° 0 mm 3 m/s 754 mmHg 64%
    02:00 +24°C° 0 mm 3 m/s 754 mmHg 65%
    03:00 +22°C° 0 mm 3 m/s 755 mmHg 68%
    04:00 +21°C° 0 mm 4 m/s 755 mmHg 71%
    05:00 +21°C° 0 mm 4 m/s 755 mmHg 74%
    06:00 +21°C° 0,1 mm 4 m/s 756 mmHg 72%
    07:00 +22°C° 0,1 mm 5 m/s 756 mmHg 71%
    08:00 +22°C° 0,1 mm 5 m/s 757 mmHg 69%
    09:00 +23°C° 0,2 mm 5 m/s 757 mmHg 66%
    10:00 +25°C° 0,2 mm 5 m/s 757 mmHg 63%
    11:00 +26°C° 0,2 mm 5 m/s 758 mmHg 60%
    12:00 +27°C° 0 mm 4 m/s 758 mmHg 55%
    13:00 +29°C° 0 mm 4 m/s 757 mmHg 51%
    14:00 +30°C° 0 mm 3 m/s 757 mmHg 46%
    15:00 +30°C° 0 mm 3 m/s 757 mmHg 47%
    16:00 +30°C° 0 mm 4 m/s 757 mmHg 48%
    17:00 +29°C° 0 mm 4 m/s 758 mmHg 49%
    18:00 +28°C° 0 mm 3 m/s 758 mmHg 56%
    19:00 +26°C° 0 mm 3 m/s 758 mmHg 64%
    20:00 +24°C° 0 mm 3 m/s 758 mmHg 71%
    21:00 +22°C° 0 mm 3 m/s 759 mmHg 74%
    22:00 +21°C° 0 mm 3 m/s 759 mmHg 78%
    23:00 +20°C° 0 mm 2 m/s 760 mmHg 82%
    Arată mai mult